Location: Austin
(30.3000°N, 97.7500°W)
Time: 04:54:07
(UTC-05:00)

Cosmos 1862 Rocket - Pass Details

Date: 18 March 2023
Orbit: 603 x 632 km, 82.5° (Epoch: 01 April)

Event Time Altitude Azimuth Distance (km) Brightness Sun altitude
Rises 20:52:15 0° 352° (N) 2,909 7.2 -16.1°
Reaches altitude 10° 20:54:29 10° 351° (N) 2,003 6.4 -16.6°
Maximum altitude 20:58:55 80° 266° (W) 642 3.6 -17.5°
Drops below altitude 10° 21:03:22 10° 179° (S) 2,002 6.0 -18.5°
Sets 21:05:36 0° 178° (S) 2,907 6.9 -19.0°
